TimeCDT,TemperatureF,Dew PointF,Humidity,Sea Level PressureIn,VisibilityMPH,Wind Direction,Wind SpeedMPH,Gust SpeedMPH,PrecipitationIn,Events,Conditions,WindDirDegrees,DateUTC
12:53 AM,50.0,37.9,63,29.77,10.0,North,-9999.0,-,N/A,,Overcast,0,2014-03-27 05:53:00
1:53 AM,52.0,39.0,61,29.73,10.0,South,23.0,-,N/A,,Overcast,170,2014-03-27 06:53:00
2:53 AM,52.0,39.9,63,29.70,10.0,South,29.9,41.4,N/A,,Overcast,180,2014-03-27 07:53:00
3:41 AM,53.1,41.0,64,29.69,10.0,South,28.8,42.6,N/A,,Overcast,190,2014-03-27 08:41:00
3:53 AM,52.0,41.0,66,29.68,10.0,South,24.2,34.5,N/A,,Overcast,190,2014-03-27 08:53:00
4:53 AM,53.1,42.1,66,29.66,10.0,South,26.5,38.0,N/A,,Overcast,190,2014-03-27 09:53:00
5:53 AM,52.0,43.0,71,29.66,10.0,South,25.3,34.5,N/A,,Overcast,190,2014-03-27 10:53:00
6:53 AM,53.1,44.1,71,29.64,10.0,South,25.3,34.5,N/A,,Overcast,190,2014-03-27 11:53:00
7:53 AM,53.1,46.0,77,29.64,10.0,South,21.9,35.7,N/A,,Overcast,190,2014-03-27 12:53:00
8:53 AM,55.0,46.9,74,29.65,10.0,South,21.9,38.0,N/A,,Overcast,190,2014-03-27 13:53:00
9:53 AM,55.9,48.9,77,29.64,10.0,SSW,25.3,31.1,N/A,,Overcast,200,2014-03-27 14:53:00
10:53 AM,57.9,50.0,75,29.61,10.0,South,25.3,39.1,N/A,,Overcast,180,2014-03-27 15:53:00
11:53 AM,61.0,51.1,70,29.57,10.0,South,28.8,36.8,N/A,,Overcast,190,2014-03-27 16:53:00
12:53 PM,63.0,52.0,67,29.54,10.0,South,24.2,43.7,N/A,,Overcast,190,2014-03-27 17:53:00
1:53 PM,66.0,52.0,60,29.51,10.0,South,29.9,43.7,N/A,,Mostly Cloudy,190,2014-03-27 18:53:00
2:53 PM,70.0,53.1,55,29.52,10.0,SSW,31.1,46.0,N/A,,Mostly Cloudy,200,2014-03-27 19:53:00
3:30 PM,69.1,52.0,54,29.51,10.0,SSW,28.8,40.3,N/A,Thunderstorm,Scattered Clouds,200,2014-03-27 20:30:00
3:53 PM,68.0,52.0,56,29.49,9.0,SSW,32.2,48.3,0.00,Rain-Thunderstorm,Light Thunderstorms and Rain,200,2014-03-27 20:53:00
4:07 PM,66.0,54.0,65,29.51,8.0,SSW,27.6,47.2,0.02,Rain,Light Rain,200,2014-03-27 21:07:00
4:53 PM,71.1,53.1,53,29.50,10.0,SSW,27.6,34.5,0.02,Thunderstorm,Thunderstorm,210,2014-03-27 21:53:00
5:11 PM,69.1,54.0,58,29.52,10.0,SSW,18.4,34.5,N/A,,Scattered Clouds,210,2014-03-27 22:11:00
5:53 PM,70.0,53.1,55,29.52,10.0,SSW,27.6,34.5,N/A,,Clear,210,2014-03-27 22:53:00
6:53 PM,69.1,54.0,58,29.54,10.0,SSW,18.4,-,N/A,,Clear,210,2014-03-27 23:53:00
7:53 PM,66.0,46.9,50,29.61,10.0,NW,16.1,-,N/A,,Partly Cloudy,310,2014-03-28 00:53:00
8:53 PM,61.0,39.9,46,29.69,10.0,WNW,18.4,27.6,N/A,,Partly Cloudy,300,2014-03-28 01:53:00
9:53 PM,55.0,37.9,53,29.75,10.0,NW,16.1,-,N/A,,Clear,310,2014-03-28 02:53:00
10:53 PM,51.1,37.0,59,29.79,10.0,NW,13.8,-,N/A,,Clear,320,2014-03-28 03:53:00
11:53 PM,46.9,35.1,63,29.84,10.0,NNW,12.7,-,N/A,,Clear,330,2014-03-28 04:53:00